Weather History for Joplin, MO

Change the Weather History Date:

Monday, March 18, 2013

  Actual Average Record
Temperature  
Mean Temperature 47 °F 50 °F  
Max Temperature 56 °F 61 °F 83 °F (1982)
Min Temperature 37 °F 38 °F 18 °F (1965)
Degree Days  
Heating Degree Days 18 16  
Month to date heating degree days 369 329  
Since 1 July heating degree days 3485 3583  
Cooling Degree Days 0 0  
Month to date cooling degree days 0 0  
Year to date cooling degree days 1 1  
Moisture  
Dew Point 36 °F    
Average Humidity 65    
Maximum Humidity 100    
Minimum Humidity 30    
Precipitation  
Precipitation 0.03 in 0.11 in 3.22 in (2008)
Month to date precipitation 1.20 1.89  
Year to date precipitation 6.35 6.24  
Snow  
Snow 0.00 in - - ()
Month to date snowfall T  
Snow Depth 0.00 in    
Sea Level Pressure  
Sea Level Pressure 29.85 in    
Wind  
Wind Speed 9 mph (NW)    
Max Wind Speed 21 mph    
Max Gust Speed 26 mph    
Visibility 6 miles    
Events Fog , Rain    
T = Trace of Precipitation, MM = Missing Value Source: NWS Daily Summary

Daily Weather History Graph

Daily Weather History Graph

Search for Another Location

Airport:

Trip Planner

Search our weather history database for the weather conditions in past years. The results will help you decide how hot, cold, wet, or windy it might be!

Date:

Astronomy

Mar. 18, 2013 Rise Set
Actual Time 7:24 AM CDT 7:28 PM CDT
Civil Twilight 6:58 AM CDT 7:54 PM CDT
Nautical Twilight 6:27 AM CDT 8:24 PM CDT
Astronomical Twilight 5:57 AM CDT 8:55 PM CDT
Moon 11:32 AM CDT (3/18) 1:20 AM CDT (3/18)
Length of Visible Light 12h 56m
Length of Day
12h 04m
Waxing Crescent, 41% of the Moon is Illuminated
Mar 18
Waxing Crescent
Mar 19
First Quarter
Mar 27
Full
Apr 2
Last Quarter
Apr 10
New

Hourly Weather History & Observations

Time (CDT) Temp. Windchill Dew Point Humidity Pressure Visibility Wind Dir Wind Speed Gust Speed Precip Events Conditions
12:11 AM 41.0 °F - 41.0 °F 100% 29.72 in 2.5 mi Calm Calm - N/A   Overcast
12:45 AM 41.0 °F 38.0 °F 41.0 °F 100% 29.70 in 1.8 mi SSE 4.6 mph - N/A   Overcast
12:53 AM 41.0 °F - 41.0 °F 100% 29.71 in 1.5 mi Calm Calm - N/A   Overcast
1:53 AM 41.0 °F 38.0 °F 41.0 °F 100% 29.74 in 2.0 mi West 4.6 mph - N/A   Overcast
2:33 AM 41.0 °F 37.1 °F 41.0 °F 100% 29.74 in 1.5 mi West 5.8 mph - N/A   Overcast
2:53 AM 41.0 °F 39.0 °F 41.0 °F 100% 29.74 in 1.5 mi West 3.5 mph - N/A   Overcast
3:01 AM 41.0 °F 36.4 °F 41.0 °F 100% 29.74 in 3.0 mi WSW 6.9 mph - N/A   Overcast
3:44 AM 41.0 °F - 41.0 °F 100% 29.71 in 1.8 mi Calm Calm - N/A   Overcast
3:53 AM 41.0 °F 34.7 °F 39.9 °F 96% 29.75 in 2.5 mi SW 10.4 mph - 0.00 in Rain Light Rain
4:00 AM 41.0 °F 34.7 °F 39.2 °F 93% 29.76 in 4.0 mi West 10.4 mph - 0.01 in Rain Light Rain
4:14 AM 41.0 °F 35.2 °F 41.0 °F 100% 29.75 in 1.8 mi West 9.2 mph - 0.01 in   Overcast
4:22 AM 41.0 °F 35.8 °F 41.0 °F 100% 29.75 in 0.8 mi West 8.1 mph - 0.01 in   Mist
4:30 AM 41.0 °F 34.7 °F 41.0 °F 100% 29.75 in 0.5 mi West 10.4 mph - 0.01 in Fog Fog
4:53 AM 39.9 °F 33.4 °F 39.9 °F 100% 29.77 in 0.5 mi WNW 10.4 mph - 0.01 in Fog , Rain Light Rain
5:10 AM 39.2 °F 33.6 °F 39.2 °F 100% 29.75 in 1.0 mi NW 8.1 mph - 0.00 in   Mist
5:17 AM 39.2 °F 33.0 °F 39.2 °F 100% 29.75 in 3.0 mi NW 9.2 mph - 0.00 in   Overcast
5:53 AM 37.9 °F 30.9 °F 37.9 °F 100% 29.78 in 5.0 mi NW 10.4 mph - 0.00 in   Overcast
6:13 AM 37.4 °F 30.8 °F 37.4 °F 100% 29.78 in 2.0 mi NW 9.2 mph - N/A   Overcast
6:53 AM 37.9 °F 30.9 °F 37.9 °F 100% 29.82 in 5.0 mi WNW 10.4 mph - N/A   Overcast
7:53 AM 37.9 °F 32.1 °F 37.9 °F 100% 29.85 in 4.0 mi NW 8.1 mph - 0.00 in Rain Light Rain
8:53 AM 37.9 °F 30.9 °F 37.0 °F 97% 29.89 in 8.0 mi WNW 10.4 mph - 0.02 in   Overcast
9:15 AM 37.4 °F 29.3 °F 35.6 °F 93% 29.89 in 10.0 mi NNW 12.7 mph - N/A   Overcast
9:53 AM 39.0 °F 30.3 °F 36.0 °F 89% 29.91 in 10.0 mi NNW 16.1 mph 26.5 mph N/A   Overcast
10:53 AM 39.0 °F 31.4 °F 36.0 °F 89% 29.94 in 10.0 mi NNW 12.7 mph 20.7 mph N/A   Overcast
11:53 AM 41.0 °F 34.7 °F 37.0 °F 86% 29.96 in 10.0 mi NW 10.4 mph - N/A   Overcast
12:30 PM 44.6 °F 38.4 °F 37.4 °F 76% 29.94 in 10.0 mi NW 12.7 mph - N/A   Mostly Cloudy
12:53 PM 46.9 °F - 37.9 °F 71% 29.95 in 10.0 mi NNW 9.2 mph - N/A   Partly Cloudy
1:53 PM 50.0 °F - 37.0 °F 61% 29.94 in 10.0 mi NNW 8.1 mph 18.4 mph N/A   Scattered Clouds
2:53 PM 53.1 °F - 34.0 °F 48% 29.94 in 10.0 mi North 10.4 mph 23.0 mph N/A   Clear
3:53 PM 55.0 °F - 30.0 °F 38% 29.93 in 10.0 mi NW 12.7 mph - N/A   Clear
4:53 PM 55.0 °F - 25.0 °F 31% 29.94 in 10.0 mi NW 17.3 mph 24.2 mph N/A   Clear
5:53 PM 55.0 °F - 26.1 °F 33% 29.94 in 10.0 mi WNW 12.7 mph - N/A   Clear
6:53 PM 52.0 °F - 27.0 °F 38% 29.97 in 10.0 mi NW 8.1 mph - N/A   Clear
7:53 PM 50.0 °F - 26.1 °F 39% 29.99 in 10.0 mi NW 5.8 mph - N/A   Clear
8:53 PM 46.0 °F 44.8 °F 27.0 °F 47% 30.01 in 10.0 mi West 3.5 mph - N/A   Clear
9:53 PM 42.1 °F - 28.0 °F 58% 30.04 in 10.0 mi Calm Calm - N/A   Clear
10:53 PM 41.0 °F 38.0 °F 27.0 °F 57% 30.04 in 10.0 mi NNE 4.6 mph - N/A   Clear
11:53 PM 41.0 °F 39.0 °F 25.0 °F 53% 30.07 in 10.0 mi North 3.5 mph - N/A   Clear